Wind_Speed
14 16 17 19 20 22 25 27 28 28 29 30 30 31 33 36 38 40 41 42 42 43 43 43 42 41 40 39 39 38 38 37 36 35 34 33 32 31 30 29 29 28 26 25
16 19 20 22 24 25 26 26 27 28 30 31 33 36 38 40 42 44 44 45 45 45 46 45 44 43 41 40 40 39 37 36 35 34 33 31 30 29 28 27 26 24 22 21
18 20 22 24 25 25 25 26 28 30 33 34 36 39 42 44 45 47 48 48 48 48 48 47 46 45 44 42 41 39 37 36 34 33 32 30 29 28 27 25 23 22 20 18
21 22 24 26 26 25 26 28 30 33 36 38 40 43 46 48 50 51 52 53 53 52 51 50 48 47 45 43 41 39 38 36 34 33 32 30 28 27 25 23 22 20 18 16
26 27 27 26 26 27 30 33 33 37 40 43 46 47 50 52 54 56 57 58 57 56 55 53 51 49 47 43 41 40 38 36 35 33 31 30 28 27 25 22 20 18 16 15
30 31 31 30 28 30 35 38 40 43 47 49 51 54 55 56 57 58 59 60 60 59 58 56 54 51 48 44 41 40 39 37 35 33 31 30 29 26 24 21 19 17 15 14
31 33 35 34 35 37 40 43 46 49 52 55 57 59 61 63 64 64 65 65 64 63 61 59 56 53 49 46 42 41 40 38 36 34 32 30 28 25 23 21 18 16 14 13
33 35 37 38 41 43 45 48 52 54 57 60 62 64 66 68 69 70 70 69 68 66 64 61 58 55 52 48 46 43 41 39 38 35 33 30 27 25 23 20 18 16 14 12
35 37 40 43 45 48 51 53 56 59 62 64 67 69 71 72 73 73 72 70 68 66 64 61 58 56 54 51 49 46 44 41 39 36 33 30 27 25 23 21 19 17 15 13
39 41 43 46 49 52 54 57 60 63 66 69 71 73 74 74 74 71 70 67 65 63 60 57 56 55 54 53 50 48 45 42 38 35 34 31 29 26 24 22 20 17 16 14
41 43 46 49 52 55 57 60 63 66 68 71 72 73 72 70 68 66 63 60 58 57 54 52 52 50 51 52 50 49 46 42 39 37 35 32 30 28 25 24 21 19 18 16
43 46 49 52 54 58 61 64 66 68 69 70 69 68 66 63 60 58 55 52 50 48 48 47 45 45 47 48 48 49 47 43 40 38 35 33 31 29 27 25 23 21 20 18
46 49 52 56 59 63 66 67 69 69 69 68 65 62 59 55 52 49 47 46 45 44 43 42 40 40 41 44 45 45 44 43 41 38 35 34 33 31 28 27 25 24 22 21
50 54 57 61 64 66 68 69 69 67 64 61 58 53 50 47 45 44 43 42 42 42 40 38 37 35 35 37 40 41 41 41 40 39 37 35 34 32 30 29 27 25 24 23
54 58 62 65 67 68 69 68 66 62 57 52 48 45 43 42 40 40 40 40 40 39 37 35 33 31 31 32 35 37 39 39 40 40 39 36 35 34 32 30 28 27 25 24
59 62 66 68 70 69 68 65 61 55 50 45 42 41 40 40 39 39 38 38 38 37 35 33 30 28 27 27 31 33 37 38 38 38 38 37 35 35 33 31 29 28 26 25
63 66 69 71 71 69 64 60 55 49 45 42 40 40 40 39 39 39 39 38 38 36 34 32 29 26 25 24 27 30 34 36 36 36 37 37 35 34 33 31 30 28 27 27
66 69 70 70 68 65 59 54 49 45 42 41 40 40 41 40 40 40 39 38 36 34 32 30 26 23 22 23 25 28 31 34 35 35 36 36 34 34 33 32 30 29 28 27
68 69 68 66 62 58 54 50 46 42 40 40 40 40 40 41 41 41 40 37 35 33 30 27 24 20 19 20 23 27 30 33 34 34 35 35 34 33 32 31 30 29 28 26
68 67 64 60 56 53 49 45 42 40 39 39 39 40 41 41 41 40 38 36 35 32 27 23 20 18 18 19 21 25 29 32 34 33 34 34 34 33 31 30 29 28 27 25
66 64 60 56 52 48 44 41 39 38 37 37 39 40 40 40 40 39 37 35 32 28 24 21 17 15 16 18 21 25 29 31 33 33 33 33 33 33 31 28 27 26 26 25
63 60 56 52 48 43 40 38 37 36 36 37 38 40 40 39 38 37 35 34 30 25 22 18 15 13 15 18 21 26 29 31 32 32 33 33 32 32 30 28 26 25 25 24
59 55 52 49 45 41 38 36 35 35 36 37 39 39 40 39 38 37 34 31 26 22 19 15 12 11 14 18 22 26 29 31 32 32 33 32 30 30 29 27 26 24 23 23
56 52 49 46 42 39 36 33 33 33 35 37 38 39 40 39 36 35 32 28 24 20 16 12 8 8 13 18 24 28 30 31 32 33 32 30 28 28 27 26 25 23 22 21
53 49 47 44 40 36 34 32 32 33 34 35 37 38 38 38 36 33 29 25 21 17 12 8 5 7 14 19 25 28 30 32 33 33 32 30 28 26 25 24 23 22 21 20
50 47 46 43 39 35 33 32 32 34 35 36 36 37 36 35 33 30 26 22 17 13 9 5 1 8 15 21 26 29 32 34 35 33 33 30 28 25 23 22 21 20 19 18
48 45 43 39 35 32 31 31 32 34 36 36 35 35 34 32 30 28 23 20 16 11 8 5 4 11 17 23 27 30 33 34 33 32 32 29 27 24 23 21 19 18 17 16
Wind_Direction
309 304 303 302 299 298 296 296 295 297 299 302 304 303 301 301 300 300 300 300 301 301 301 302 303 304 305 305 306 307 308 308 307 306 303 300 298 297 295 294 292 291 293 292
314 308 306 304 304 303 301 299 298 298 298 300 300 300 299 298 297 297 296 296 296 297 298 299 300 301 302 302 302 304 305 305 304 304 304 300 297 297 296 294 293 293 294 292
314 310 307 305 309 308 305 300 297 295 295 294 293 293 293 292 293 293 294 294 294 295 297 297 298 299 300 300 300 300 302 301 301 301 301 299 295 295 295 293 293 294 294 292
316 314 313 313 313 311 305 299 296 295 293 292 292 292 292 293 294 294 294 295 295 296 296 295 295 295 296 297 296 295 296 298 297 297 296 295 293 292 291 291 290 291 291 289
321 318 315 314 315 310 304 299 299 296 294 293 293 292 291 292 293 293 293 293 293 293 293 292 292 291 292 292 291 291 291 292 292 291 291 290 288 286 286 285 284 283 285 286
320 317 315 313 312 306 302 301 300 297 295 295 295 294 294 293 291 291 290 291 291 290 290 288 288 287 287 287 285 284 285 286 285 285 286 284 282 280 280 279 278 277 279 281
316 313 309 311 309 304 300 298 298 297 297 297 297 297 297 296 295 294 293 292 291 290 289 288 286 284 281 280 278 278 278 279 279 279 278 277 274 271 271 271 270 270 272 272
310 307 304 305 303 301 300 300 300 300 299 299 298 297 296 296 295 295 294 293 292 290 289 287 284 281 278 274 271 270 270 271 272 272 272 269 265 262 262 262 261 259 261 260
305 304 304 304 304 303 303 302 301 301 300 299 298 297 297 297 296 296 295 295 293 291 288 285 281 277 273 270 266 262 261 262 263 264 263 259 255 253 253 252 252 250 249 248
306 306 306 305 304 304 304 303 302 301 301 300 299 299 298 298 298 297 297 296 293 291 289 285 280 275 268 265 260 256 254 254 255 255 254 251 247 245 244 243 242 240 239 237
307 307 306 306 306 306 306 304 303 302 301 300 300 299 299 299 299 299 298 296 294 293 291 287 281 274 267 262 256 250 247 246 246 247 247 244 239 236 235 235 234 233 230 229
309 310 309 309 308 308 307 306 305 304 302 302 303 303 303 303 303 303 302 300 298 296 294 290 283 274 266 258 251 247 245 241 239 240 238 237 233 228 228 229 229 227 225 225
313 314 313 313 312 311 310 309 308 307 307 308 307 307 307 307 307 307 306 305 303 300 298 293 286 279 269 256 248 244 241 236 234 233 232 231 227 222 222 222 224 224 222 222
318 318 317 316 315 314 313 312 312 312 311 311 310 310 310 310 310 309 309 307 305 303 300 296 289 282 273 258 247 240 236 233 230 228 227 224 221 219 218 218 219 220 221 221
321 321 320 319 318 317 316 315 315 316 315 314 313 313 313 313 313 313 312 311 310 307 302 298 292 285 276 260 246 238 232 229 227 224 223 220 217 216 215 215 215 216 217 219
324 323 322 321 320 319 319 319 319 319 319 318 317 317 317 316 315 315 315 314 312 310 305 300 293 285 277 260 244 234 228 226 222 218 218 217 214 213 213 212 213 214 216 218
325 324 324 323 322 322 322 322 322 322 322 321 320 320 320 319 318 317 316 315 313 311 307 302 295 282 272 257 241 230 225 220 216 213 214 212 210 209 209 210 212 215 217 218
327 326 325 324 324 323 324 324 323 322 322 322 322 323 323 322 321 319 317 315 314 312 308 302 297 283 268 252 236 225 217 213 210 209 208 208 207 206 206 207 209 212 215 217
329 327 326 325 325 324 324 324 324 324 323 323 323 324 324 323 321 321 320 317 314 312 308 300 295 281 262 249 232 218 209 206 206 206 205 205 205 204 204 205 207 210 214 217
329 328 327 326 325 325 324 324 325 325 325 325 326 326 326 325 324 323 322 321 318 314 309 302 292 275 255 243 226 212 204 202 201 201 201 203 203 202 202 202 205 208 212 216
329 328 328 326 327 326 326 326 326 327 328 329 330 329 329 329 328 326 325 323 320 315 311 304 291 268 245 232 218 206 198 197 196 197 197 200 200 198 197 199 203 207 211 215
330 329 329 328 329 329 328 328 329 329 331 331 331 331 331 330 330 329 328 326 323 317 311 303 287 261 238 222 211 202 196 193 191 192 193 193 193 192 195 197 199 203 206 211
331 331 330 331 332 331 331 330 331 331 331 332 332 332 333 333 332 331 330 328 325 320 315 304 283 250 225 211 203 197 193 189 187 185 184 186 188 189 192 194 196 198 201 206
332 332 332 333 333 332 332 333 334 333 333 334 335 335 335 335 335 334 332 330 326 322 320 310 284 238 209 197 194 190 188 185 181 179 179 181 183 185 188 191 193 194 196 202
334 334 334 335 334 334 334 336 336 335 336 337 338 338 338 338 338 339 338 337 333 330 329 319 275 211 191 186 185 183 181 180 178 176 176 177 179 181 184 186 187 189 192 197
336 336 336 337 336 335 335 336 337 337 339 340 341 342 343 343 344 345 345 346 346 347 348 344 227 177 175 176 177 178 177 176 174 175 175 177 179 179 182 185 186 189 194 199
337 336 335 337 336 335 335 336 338 339 341 343 345 346 347 349 350 350 352 356 2 8 13 28 135 158 164 168 170 171 171 171 172 174 177 179 180 182 185 186 188 191 194 199
Height
5852 5850 5847 5845 5842 5840 5836 5833 5829 5826 5824 5822 5818 5814 5810 5806 5802 5797 5793 5788 5784 5779 5775 5770 5766 5762 5757 5753 5748 5743 5738 5733 5729 5725 5721 5717 5714 5711 5708 5705 5702 5700 5697 5695
5848 5845 5842 5839 5836 5833 5830 5826 5823 5820 5817 5814 5810 5805 5801 5796 5792 5787 5783 5778 5773 5769 5764 5760 5755 5751 5747 5743 5738 5734 5730 5725 5721 5717 5713 5709 5706 5703 5701 5698 5696 5693 5691 5689
5844 5840 5837 5834 5831 5827 5823 5820 5817 5813 5811 5806 5802 5797 5791 5786 5781 5776 5771 5766 5761 5756 5752 5747 5743 5739 5735 5732 5728 5724 5720 5716 5713 5709 5705 5702 5699 5697 5694 5692 5690 5688 5686 5684
5838 5835 5831 5829 5823 5820 5815 5811 5808 5804 5800 5795 5791 5786 5779 5773 5767 5762 5756 5751 5746 5742 5738 5734 5730 5726 5723 5720 5717 5713 5710 5707 5704 5701 5698 5695 5692 5690 5688 5686 5685 5683 5682 5680
5830 5827 5824 5821 5816 5811 5806 5802 5799 5794 5789 5783 5778 5773 5767 5760 5753 5747 5741 5735 5731 5726 5722 5718 5715 5712 5710 5707 5705 5702 5700 5697 5695 5692 5690 5688 5686 5684 5682 5681 5680 5678 5677 5676
5823 5819 5815 5814 5810 5804 5799 5792 5788 5782 5775 5769 5763 5757 5753 5746 5739 5733 5727 5721 5715 5710 5706 5702 5699 5696 5695 5693 5692 5690 5688 5686 5684 5683 5681 5680 5678 5677 5676 5675 5674 5673 5673 5672
5816 5811 5806 5803 5799 5794 5789 5784 5776 5769 5762 5755 5747 5741 5734 5727 5720 5713 5707 5701 5696 5691 5687 5683 5681 5679 5678 5677 5676 5676 5675 5674 5673 5672 5671 5670 5670 5670 5670 5669 5669 5668 5668 5668
5808 5803 5800 5794 5788 5783 5777 5770 5762 5755 5747 5739 5731 5723 5716 5708 5700 5693 5686 5680 5674 5670 5666 5662 5659 5658 5659 5659 5659 5660 5660 5661 5661 5661 5661 5661 5661 5661 5662 5663 5663 5663 5664 5664
5801 5797 5790 5783 5777 5770 5763 5755 5747 5739 5730 5721 5713 5704 5696 5687 5679 5671 5664 5657 5651 5646 5643 5640 5637 5635 5636 5638 5639 5642 5644 5646 5647 5648 5649 5650 5651 5653 5654 5656 5657 5658 5659 5660
5791 5785 5779 5772 5765 5757 5749 5740 5731 5722 5712 5702 5692 5683 5674 5665 5657 5649 5642 5634 5628 5623 5619 5616 5613 5611 5612 5614 5617 5621 5625 5629 5632 5634 5637 5639 5641 5643 5646 5648 5650 5652 5654 5655
5782 5776 5768 5761 5752 5744 5735 5725 5715 5705 5695 5684 5673 5663 5654 5645 5637 5628 5620 5613 5606 5601 5597 5594 5591 5589 5589 5590 5594 5600 5605 5611 5616 5620 5623 5627 5630 5633 5637 5641 5643 5646 5648 5650
5773 5765 5757 5749 5740 5730 5720 5709 5698 5687 5676 5665 5652 5641 5632 5624 5616 5608 5600 5593 5587 5581 5576 5572 5569 5568 5568 5569 5573 5580 5586 5593 5600 5605 5610 5614 5619 5623 5628 5632 5636 5639 5642 5644
5761 5753 5744 5735 5725 5714 5702 5691 5679 5666 5654 5643 5633 5623 5613 5605 5598 5591 5584 5577 5571 5565 5560 5556 5552 5551 5550 5551 5555 5562 5569 5576 5583 5590 5596 5602 5608 5613 5618 5623 5628 5632 5635 5638
5749 5740 5730 5720 5708 5696 5684 5671 5660 5648 5637 5625 5615 5606 5598 5591 5584 5577 5570 5563 5557 5551 5546 5542 5538 5536 5535 5536 5540 5546 5553 5561 5568 5576 5583 5590 5597 5603 5609 5614 5620 5624 5628 5632
5737 5727 5716 5704 5691 5679 5666 5653 5642 5631 5621 5611 5601 5593 5586 5578 5572 5565 5558 5551 5545 5539 5534 5530 5527 5524 5523 5524 5527 5532 5539 5547 5555 5564 5572 5579 5586 5593 5600 5606 5612 5617 5621 5625
5725 5713 5701 5688 5675 5662 5649 5636 5625 5615 5606 5597 5590 5582 5575 5568 5561 5555 5548 5541 5534 5529 5523 5519 5516 5514 5513 5514 5516 5521 5528 5535 5544 5552 5561 5569 5577 5584 5591 5598 5604 5610 5615 5619
5710 5698 5685 5672 5658 5645 5633 5621 5611 5602 5594 5586 5579 5572 5565 5558 5552 5545 5538 5531 5524 5518 5513 5509 5506 5504 5504 5505 5507 5512 5518 5526 5534 5543 5552 5560 5568 5576 5583 5590 5597 5603 5608 5613
5695 5681 5667 5654 5641 5630 5620 5610 5601 5592 5584 5577 5570 5563 5556 5549 5542 5535 5528 5521 5515 5509 5504 5499 5496 5495 5495 5497 5500 5504 5511 5518 5526 5535 5544 5552 5560 5568 5575 5583 5590 5596 5601 5606
5681 5668 5654 5642 5629 5618 5608 5599 5591 5583 5576 5569 5562 5554 5547 5539 5532 5525 5517 5511 5505 5499 5495 5490 5488 5487 5488 5490 5493 5498 5505 5512 5520 5528 5537 5546 5554 5562 5569 5577 5583 5589 5594 5599
5669 5656 5643 5631 5620 5609 5599 5591 5583 5576 5569 5561 5554 5546 5539 5531 5523 5515 5508 5501 5495 5489 5485 5482 5480 5480 5481 5483 5487 5492 5499 5507 5515 5523 5531 5540 5549 5557 5564 5571 5578 5583 5589 5593
5657 5645 5633 5622 5612 5602 5592 5583 5576 5569 5562 5554 5546 5539 5531 5523 5515 5507 5499 5493 5487 5481 5477 5475 5473 5473 5475 5478 5482 5488 5494 5502 5510 5518 5527 5536 5544 5552 5560 5567 5573 5579 5583 5588
5647 5635 5623 5613 5603 5594 5586 5577 5570 5562 5556 5548 5541 5532 5524 5516 5508 5500 5492 5485 5479 5474 5470 5468 5467 5468 5470 5473 5478 5484 5491 5498 5507 5515 5524 5532 5540 5548 5556 5563 5569 5574 5579 5583
5637 5625 5614 5604 5595 5587 5579 5572 5564 5557 5550 5543 5535 5526 5518 5509 5500 5492 5485 5479 5473 5468 5465 5462 5462 5462 5465 5469 5475 5481 5488 5496 5505 5513 5522 5530 5538 5545 5552 5559 5565 5571 5575 5579
5628 5617 5607 5597 5588 5581 5574 5567 5560 5552 5545 5538 5529 5521 5512 5504 5496 5488 5479 5473 5468 5463 5460 5458 5458 5459 5462 5466 5472 5479 5487 5495 5504 5512 5521 5528 5536 5543 5550 5556 5562 5567 5572 5575
5620 5610 5600 5591 5583 5575 5568 5562 5555 5549 5542 5534 5526 5517 5508 5499 5491 5483 5476 5469 5464 5460 5457 5456 5456 5457 5461 5465 5472 5479 5487 5494 5503 5512 5520 5528 5535 5542 5549 5554 5560 5564 5569 5573
5613 5603 5594 5585 5577 5570 5563 5557 5551 5544 5537 5530 5522 5514 5505 5497 5488 5480 5474 5468 5463 5459 5456 5455 5455 5457 5461 5466 5472 5479 5488 5496 5505 5513 5521 5528 5535 5541 5547 5553 5558 5562 5566 5570
5607 5598 5590 5582 5575 5567 5561 5554 5548 5541 5533 5526 5518 5511 5503 5495 5488 5480 5474 5468 5464 5460 5457 5456 5457 5459 5463 5468 5474 5482 5490 5498 5506 5514 5522 5529 5535 5541 5546 5551 5556 5560 5564 5567